TimeEDT,TemperatureF,Dew PointF,Humidity,Sea Level PressureIn,VisibilityMPH,Wind Direction,Wind SpeedMPH,Gust SpeedMPH,PrecipitationIn,Events,Conditions,WindDirDegrees,DateUTC
8:05 AM,-9999,-9999,N/A,30.00,-9999.0,Calm,Calm,-,0.00,,Unknown,0,2013-03-23 12:05:00
8:10 AM,24.8,23.0,93,30.01,10.0,Calm,Calm,-,0.00,,Unknown,0,2013-03-23 12:10:00
8:30 AM,26.6,24.8,93,30.02,8.0,Calm,Calm,-,0.00,,Mostly Cloudy,0,2013-03-23 12:30:00
9:10 AM,28.4,23.0,80,30.03,10.0,Calm,Calm,-,0.00,,Mostly Cloudy,0,2013-03-23 13:10:00
9:30 AM,28.4,26.6,93,30.04,10.0,Calm,Calm,-,0.00,,Scattered Clouds,0,2013-03-23 13:30:00
9:50 AM,30.2,26.6,86,30.03,10.0,Calm,Calm,-,0.00,,Partly Cloudy,0,2013-03-23 13:50:00
10:10 AM,32.0,26.6,80,30.04,10.0,Calm,Calm,-,0.00,,Clear,0,2013-03-23 14:10:00
10:30 AM,32.0,26.6,80,30.04,10.0,Calm,Calm,-,0.00,,Clear,0,2013-03-23 14:30:00
10:50 AM,33.8,26.6,75,30.03,10.0,Calm,Calm,-,0.00,,Clear,0,2013-03-23 14:50:00
11:10 AM,33.8,23.0,65,30.03,10.0,North,3.5,-,0.00,,Clear,350,2013-03-23 15:10:00
11:30 AM,35.6,23.0,60,30.04,10.0,WSW,3.5,-,0.00,,Clear,250,2013-03-23 15:30:00
11:50 AM,35.6,24.8,65,30.03,10.0,NW,5.8,-,0.00,,Clear,320,2013-03-23 15:50:00
12:10 PM,35.6,23.0,60,30.03,10.0,West,3.5,-,0.00,,Clear,270,2013-03-23 16:10:00
12:30 PM,37.4,23.0,56,30.03,10.0,WSW,5.8,-,0.00,,Clear,250,2013-03-23 16:30:00
12:50 PM,37.4,23.0,56,30.02,10.0,WNW,5.8,-,0.00,,Clear,290,2013-03-23 16:50:00
1:10 PM,37.4,23.0,56,30.02,10.0,NW,9.2,-,0.00,,Clear,310,2013-03-23 17:10:00
1:30 PM,39.2,24.8,56,30.02,10.0,WNW,5.8,-,0.00,,Clear,290,2013-03-23 17:30:00
2:10 PM,39.2,23.0,52,30.01,10.0,NW,10.4,-,0.00,,Clear,320,2013-03-23 18:10:00
2:30 PM,41.0,23.0,49,30.01,10.0,West,6.9,17.3,0.00,,Clear,280,2013-03-23 18:30:00
2:50 PM,39.2,21.2,49,30.00,10.0,West,6.9,17.3,0.00,,Clear,270,2013-03-23 18:50:00
3:10 PM,41.0,23.0,49,30.00,10.0,WNW,9.2,-,0.00,,Clear,300,2013-03-23 19:10:00
3:30 PM,41.0,21.2,45,30.00,10.0,NW,9.2,-,0.00,,Clear,310,2013-03-23 19:30:00
3:50 PM,41.0,23.0,49,29.99,10.0,NNW,9.2,-,0.00,,Clear,340,2013-03-23 19:50:00
4:10 PM,41.0,21.2,45,29.99,10.0,North,6.9,-,0.00,,Clear,350,2013-03-23 20:10:00
4:30 PM,42.8,21.2,42,29.99,10.0,North,3.5,-,0.00,,Clear,360,2013-03-23 20:30:00
4:50 PM,42.8,19.4,39,29.99,10.0,North,5.8,-,0.00,,Clear,10,2013-03-23 20:50:00
5:10 PM,42.8,21.2,42,29.98,10.0,NW,8.1,-,0.00,,Clear,320,2013-03-23 21:10:00
5:30 PM,42.8,19.4,39,29.97,10.0,Calm,Calm,-,0.00,,Clear,0,2013-03-23 21:30:00
5:50 PM,42.8,21.2,42,29.97,10.0,NW,3.5,-,0.00,,Clear,310,2013-03-23 21:50:00
6:10 PM,42.8,23.0,46,29.96,10.0,NNW,6.9,-,0.00,,Clear,340,2013-03-23 22:10:00
6:30 PM,41.0,21.2,45,29.97,10.0,Calm,Calm,-,0.00,,Clear,0,2013-03-23 22:30:00
6:50 PM,39.2,23.0,52,29.97,10.0,North,10.4,-,0.00,,Clear,10,2013-03-23 22:50:00
7:10 PM,39.2,24.8,56,29.97,10.0,North,9.2,-,0.00,,Clear,10,2013-03-23 23:10:00
7:30 PM,37.4,23.0,56,29.96,10.0,NNE,5.8,-,0.00,,Clear,30,2013-03-23 23:30:00
7:50 PM,37.4,23.0,56,29.97,10.0,NNE,5.8,-,0.00,,Clear,20,2013-03-23 23:50:00
8:10 PM,35.6,23.0,60,29.97,10.0,NNE,5.8,-,0.00,,Clear,30,2013-03-24 00:10:00
8:30 PM,33.8,23.0,65,29.97,10.0,NNE,5.8,-,0.00,,Clear,30,2013-03-24 00:30:00
8:50 PM,33.8,26.6,75,29.97,10.0,NE,8.1,-,0.00,,Clear,40,2013-03-24 00:50:00
9:10 PM,33.8,26.6,75,29.98,10.0,NE,8.1,-,0.00,,Clear,50,2013-03-24 01:10:00
9:30 PM,32.0,28.4,87,29.98,10.0,NE,8.1,-,0.00,,Clear,50,2013-03-24 01:30:00
9:50 PM,32.0,28.4,87,29.97,10.0,NE,9.2,-,0.00,,Clear,50,2013-03-24 01:50:00
10:10 PM,32.0,28.4,87,29.96,10.0,NE,12.7,-,0.00,,Clear,50,2013-03-24 02:10:00
10:30 PM,32.0,28.4,87,29.96,10.0,NE,15.0,-,0.00,,Clear,50,2013-03-24 02:30:00
10:50 PM,32.0,28.4,87,29.95,10.0,ENE,13.8,-,0.00,,Clear,60,2013-03-24 02:50:00
11:10 PM,32.0,26.6,80,29.94,10.0,ENE,15.0,20.7,0.00,,Clear,60,2013-03-24 03:10:00
11:30 PM,32.0,26.6,80,29.93,10.0,ENE,15.0,-,0.00,,Clear,60,2013-03-24 03:30:00
11:50 PM,30.2,26.6,86,29.92,10.0,NE,13.8,-,0.00,,Clear,50,2013-03-24 03:50:00